SWA1493 KSNA-KOAK

Flight info

Callsign SWA1493
Flight time 1h 3m
Altitude 32000
Route HHERO3 OROSZ COREZ RGOOD EMZOH4
Aircraft B738/M-SDE2E3FGHIRWXY/LB1

Departure

Time 2026-04-30 19:47
Airport John Wayne Orange County International Airport (KSNA)

Arrival

Time 2026-04-30 20:51
Airport San Francisco Bay Oakland International Airport (KOAK)
Time Latitude Longitude Altitude Speed Heading
2026-04-30 19:30 33.67720 -117.86377 54 ft 0 kts 118°
2026-04-30 19:38 33.67726 -117.86390 52 ft 3 kts 112°
2026-04-30 19:38 33.67732 -117.86413 52 ft 3 kts 95°
2026-04-30 19:39 33.67732 -117.86435 54 ft 3 kts 67°
2026-04-30 19:39 33.67723 -117.86451 54 ft 2 kts 30°
2026-04-30 19:39 33.67721 -117.86453 52 ft 1 kts 28°
2026-04-30 19:43 33.67722 -117.86452 54 ft 1 kts 28°
2026-04-30 19:43 33.67728 -117.86448 54 ft 1 kts 28°
2026-04-30 19:44 33.67813 -117.86395 50 ft 8 kts 28°
2026-04-30 19:44 33.67865 -117.86362 51 ft 8 kts 28°
2026-04-30 19:44 33.67916 -117.86329 51 ft 8 kts 28°
2026-04-30 19:44 33.67965 -117.86298 51 ft 8 kts 28°
2026-04-30 19:45 33.68012 -117.86268 52 ft 8 kts 28°
2026-04-30 19:45 33.68057 -117.86285 54 ft 7 kts 301°
2026-04-30 19:45 33.68079 -117.86340 53 ft 7 kts 296°
2026-04-30 19:45 33.68103 -117.86398 54 ft 9 kts 297°
2026-04-30 19:46 33.68113 -117.86420 54 ft 2 kts 297°
2026-04-30 19:46 33.68126 -117.86450 51 ft 7 kts 297°
2026-04-30 19:46 33.68142 -117.86512 53 ft 8 kts 259°
2026-04-30 19:46 33.68122 -117.86536 51 ft 0 kts 209°
2026-04-30 19:47 33.67931 -117.86656 54 ft 70 kts 206°
2026-04-30 19:47 33.67545 -117.86900 55 ft 118 kts 207°
2026-04-30 19:47 33.66336 -117.87658 519 ft 163 kts 207°
2026-04-30 19:47 33.65284 -117.88302 1262 ft 169 kts 205°
2026-04-30 19:48 33.64227 -117.88775 2311 ft 160 kts 198°
2026-04-30 19:48 33.63095 -117.89129 2827 ft 182 kts 189°
2026-04-30 19:48 33.61720 -117.89343 3116 ft 214 kts 186°
2026-04-30 19:48 33.60139 -117.89550 3323 ft 241 kts 185°
2026-04-30 19:49 33.58408 -117.89775 3701 ft 259 kts 186°
2026-04-30 19:49 33.55182 -117.92056 4952 ft 283 kts 224°
2026-04-30 19:49 33.53749 -117.93711 5781 ft 288 kts 224°
2026-04-30 19:50 33.52303 -117.95380 6676 ft 289 kts 223°
2026-04-30 19:50 33.50847 -117.97043 7510 ft 288 kts 222°
2026-04-30 19:50 33.49382 -117.98702 7875 ft 289 kts 222°
2026-04-30 19:50 33.47940 -118.00392 7984 ft 291 kts 231°
2026-04-30 19:51 33.46855 -118.02444 8251 ft 296 kts 240°
2026-04-30 19:51 33.45839 -118.04630 8913 ft 303 kts 240°
2026-04-30 19:51 33.44797 -118.06816 9894 ft 300 kts 239°
2026-04-30 19:51 33.43744 -118.08985 10614 ft 308 kts 239°
2026-04-30 19:52 33.42617 -118.11286 10806 ft 333 kts 239°
2026-04-30 19:52 33.41542 -118.13837 11038 ft 354 kts 254°
2026-04-30 19:52 33.41337 -118.16792 11612 ft 360 kts 278°
2026-04-30 19:52 33.41867 -118.19715 12429 ft 360 kts 285°
2026-04-30 19:53 33.42473 -118.22590 13246 ft 361 kts 285°
2026-04-30 19:53 33.43070 -118.25521 13996 ft 364 kts 285°
2026-04-30 19:53 33.43655 -118.28486 14620 ft 369 kts 285°
2026-04-30 19:53 33.44421 -118.31428 15210 ft 372 kts 297°
2026-04-30 19:54 33.45642 -118.34168 15861 ft 374 kts 301°
2026-04-30 19:54 33.46917 -118.36898 16491 ft 378 kts 301°
2026-04-30 19:54 33.48172 -118.39679 17119 ft 382 kts 301°
2026-04-30 19:54 33.49416 -118.42508 17727 ft 386 kts 301°
2026-04-30 19:55 33.50864 -118.45205 18271 ft 385 kts 317°
2026-04-30 19:55 33.52995 -118.47080 18806 ft 379 kts 338°
2026-04-30 19:55 33.55488 -118.48044 19411 ft 376 kts 352°
2026-04-30 19:55 33.58095 -118.48114 19943 ft 377 kts
2026-04-30 19:56 33.60708 -118.47758 20463 ft 380 kts
2026-04-30 19:56 33.63340 -118.47343 20967 ft 383 kts
2026-04-30 19:56 33.65993 -118.46936 21473 ft 386 kts
2026-04-30 19:56 33.68674 -118.46552 21981 ft 389 kts
2026-04-30 19:57 33.71371 -118.46182 22476 ft 392 kts
2026-04-30 19:57 33.74095 -118.45849 22960 ft 395 kts
2026-04-30 19:57 33.76856 -118.45766 23376 ft 400 kts
2026-04-30 19:57 33.79655 -118.45813 23775 ft 403 kts
2026-04-30 19:58 33.82462 -118.45882 24216 ft 404 kts
2026-04-30 19:58 33.85279 -118.45933 24671 ft 405 kts
2026-04-30 19:58 33.88102 -118.45960 25092 ft 407 kts
2026-04-30 19:58 33.90939 -118.45971 25489 ft 409 kts
2026-04-30 19:59 33.93787 -118.45974 25880 ft 411 kts
2026-04-30 19:59 33.96651 -118.45976 26272 ft 412 kts
2026-04-30 19:59 34.02337 -118.46918 26889 ft 421 kts 339°
2026-04-30 20:00 34.05018 -118.48307 27457 ft 417 kts 338°
2026-04-30 20:00 34.07624 -118.49674 28104 ft 412 kts 338°
2026-04-30 20:00 34.10247 -118.51045 28667 ft 410 kts 338°
2026-04-30 20:00 34.12862 -118.52399 29137 ft 408 kts 338°
2026-04-30 20:01 34.18068 -118.55063 30189 ft 404 kts 338°
2026-04-30 20:01 34.20657 -118.56382 30588 ft 403 kts 338°
2026-04-30 20:01 34.23241 -118.57700 30930 ft 404 kts 338°
2026-04-30 20:02 34.28405 -118.60335 31716 ft 401 kts 338°
2026-04-30 20:02 34.30980 -118.61651 31938 ft 404 kts 338°
2026-04-30 20:03 34.37941 -118.65071 31932 ft 403 kts 339°
2026-04-30 20:03 34.43953 -118.68111 31931 ft 401 kts 333°
2026-04-30 20:04 34.48003 -118.70871 31944 ft 403 kts 330°
2026-04-30 20:05 34.55222 -118.76161 31948 ft 404 kts 330°
2026-04-30 20:05 34.62495 -118.81336 31974 ft 405 kts 329°
2026-04-30 20:06 34.67357 -118.84838 31966 ft 406 kts 330°
2026-04-30 20:06 34.72234 -118.88315 31957 ft 406 kts 330°
2026-04-30 20:07 34.77099 -118.91777 31968 ft 404 kts 330°
2026-04-30 20:08 34.84473 -118.97032 31987 ft 419 kts 330°
2026-04-30 20:08 34.89572 -119.00674 31998 ft 431 kts 330°
2026-04-30 20:09 34.94790 -119.04406 31984 ft 438 kts 330°
2026-04-30 20:09 35.02735 -119.10102 31994 ft 444 kts 329°
2026-04-30 20:10 35.10706 -119.15828 31983 ft 445 kts 329°
2026-04-30 20:11 35.18685 -119.21572 31986 ft 443 kts 329°
2026-04-30 20:11 35.23986 -119.25396 31973 ft 442 kts 329°
2026-04-30 20:12 35.29274 -119.29216 32288 ft 442 kts 333°
2026-04-30 20:12 35.31953 -119.31151 32045 ft 453 kts 334°
2026-04-30 20:13 35.37370 -119.35064 31997 ft 456 kts 326°
2026-04-30 20:13 35.40112 -119.37059 31857 ft 463 kts 329°
2026-04-30 20:13 35.42887 -119.39078 31505 ft 472 kts 329°
2026-04-30 20:13 35.45667 -119.41098 31752 ft 454 kts 329°
2026-04-30 20:14 35.48341 -119.43042 31835 ft 442 kts 329°
2026-04-30 20:14 35.53605 -119.46871 31950 ft 439 kts 328°
2026-04-30 20:15 35.58592 -119.51152 31998 ft 438 kts 320°
2026-04-30 20:15 35.63245 -119.55999 31977 ft 439 kts 319°
2026-04-30 20:16 35.67908 -119.60852 31992 ft 439 kts 320°
2026-04-30 20:16 35.72567 -119.65645 32001 ft 440 kts 320°
2026-04-30 20:17 35.77299 -119.70498 31989 ft 440 kts 320°
2026-04-30 20:17 35.81963 -119.75290 31993 ft 440 kts 320°
2026-04-30 20:18 35.86657 -119.80122 31990 ft 440 kts 320°
2026-04-30 20:18 35.91340 -119.84965 31987 ft 439 kts 319°
2026-04-30 20:19 35.95800 -119.90105 31995 ft 438 kts 316°
2026-04-30 20:19 36.00157 -119.95370 31997 ft 438 kts 316°
2026-04-30 20:20 36.04522 -120.00612 32002 ft 438 kts 316°
2026-04-30 20:20 36.08906 -120.05838 31997 ft 438 kts 316°
2026-04-30 20:21 36.13292 -120.11058 31998 ft 437 kts 316°
2026-04-30 20:21 36.17673 -120.16278 31992 ft 437 kts 316°
2026-04-30 20:22 36.22046 -120.21498 32012 ft 436 kts 316°
2026-04-30 20:22 36.26415 -120.26723 31999 ft 436 kts 316°
2026-04-30 20:23 36.30776 -120.31949 32009 ft 436 kts 316°
2026-04-30 20:23 36.35137 -120.37181 32006 ft 436 kts 316°
2026-04-30 20:24 36.39463 -120.42381 31997 ft 436 kts 315°
2026-04-30 20:24 36.43837 -120.47648 32000 ft 435 kts 315°
2026-04-30 20:25 36.50315 -120.55464 32009 ft 434 kts 315°
2026-04-30 20:26 36.56886 -120.63204 31940 ft 428 kts 318°
2026-04-30 20:26 36.61176 -120.67871 31239 ft 398 kts 318°
2026-04-30 20:26 36.63269 -120.70154 30243 ft 402 kts 318°
2026-04-30 20:27 36.67441 -120.74755 28580 ft 395 kts 318°
2026-04-30 20:27 36.71490 -120.79253 27093 ft 386 kts 318°
2026-04-30 20:28 36.75456 -120.83669 25618 ft 379 kts 319°
2026-04-30 20:28 36.79358 -120.88007 24228 ft 373 kts 319°
2026-04-30 20:29 36.83205 -120.92266 22784 ft 366 kts 319°
2026-04-30 20:30 36.88834 -120.98510 20674 ft 356 kts 319°
2026-04-30 20:30 36.94264 -121.04549 19133 ft 340 kts 320°
2026-04-30 20:31 36.99499 -121.10382 18794 ft 325 kts 320°
2026-04-30 20:32 37.04430 -121.15885 18781 ft 316 kts 319°
2026-04-30 20:32 37.07721 -121.19564 18794 ft 319 kts 319°
2026-04-30 20:33 37.09374 -121.21416 18790 ft 319 kts 320°
2026-04-30 20:33 37.12683 -121.25125 18775 ft 320 kts 320°
2026-04-30 20:33 37.14344 -121.26984 18775 ft 320 kts 320°
2026-04-30 20:34 37.17662 -121.30691 18796 ft 320 kts 320°
2026-04-30 20:34 37.20977 -121.34392 18785 ft 318 kts 320°
2026-04-30 20:35 37.22631 -121.36238 18785 ft 318 kts 320°
2026-04-30 20:35 37.24259 -121.38059 18779 ft 317 kts 320°
2026-04-30 20:35 37.27540 -121.41736 18781 ft 316 kts 320°
2026-04-30 20:36 37.29179 -121.43572 18788 ft 315 kts 320°
2026-04-30 20:36 37.30816 -121.45401 18791 ft 316 kts 320°
2026-04-30 20:36 37.34100 -121.49067 18791 ft 316 kts 320°
2026-04-30 20:37 37.35742 -121.50896 18792 ft 314 kts 320°
2026-04-30 20:37 37.37429 -121.52571 18712 ft 306 kts 332°
2026-04-30 20:37 37.39450 -121.53401 18235 ft 310 kts 355°
2026-04-30 20:37 37.41597 -121.53092 17730 ft 316 kts 18°
2026-04-30 20:38 37.43503 -121.51690 17211 ft 323 kts 38°
2026-04-30 20:38 37.45121 -121.49708 16726 ft 327 kts 43°
2026-04-30 20:38 37.46690 -121.47616 16231 ft 330 kts 44°
2026-04-30 20:39 37.50341 -121.44695 15809 ft 301 kts
2026-04-30 20:39 37.52323 -121.45173 15613 ft 289 kts 333°
2026-04-30 20:39 37.53983 -121.46561 15181 ft 287 kts 321°
2026-04-30 20:40 37.56325 -121.50614 14149 ft 292 kts 290°
2026-04-30 20:40 37.56674 -121.53133 13708 ft 293 kts 271°
2026-04-30 20:40 37.56363 -121.55667 13233 ft 294 kts 254°
2026-04-30 20:41 37.54140 -121.59906 12354 ft 292 kts 231°
2026-04-30 20:41 37.52820 -121.61801 12067 ft 283 kts 230°
2026-04-30 20:41 37.51550 -121.63626 11910 ft 272 kts 231°
2026-04-30 20:41 37.50322 -121.65399 11709 ft 263 kts 231°
2026-04-30 20:42 37.49309 -121.67255 11438 ft 255 kts 252°
2026-04-30 20:42 37.49125 -121.69422 11050 ft 249 kts 282°
2026-04-30 20:42 37.50647 -121.73251 10216 ft 248 kts 307°
2026-04-30 20:43 37.51669 -121.74996 9797 ft 248 kts 307°
2026-04-30 20:43 37.52694 -121.76749 9376 ft 249 kts 306°
2026-04-30 20:43 37.53393 -121.78781 8671 ft 262 kts 279°
2026-04-30 20:44 37.53867 -121.83427 7686 ft 266 kts 278°
2026-04-30 20:44 37.54119 -121.85661 7622 ft 249 kts 278°
2026-04-30 20:44 37.54598 -121.89794 6984 ft 235 kts 278°
2026-04-30 20:45 37.55070 -121.93842 6092 ft 232 kts 278°
2026-04-30 20:45 37.55307 -121.95877 5501 ft 237 kts 279°
2026-04-30 20:45 37.55547 -121.97945 4943 ft 240 kts 279°
2026-04-30 20:46 37.57878 -122.03070 3784 ft 219 kts 311°
2026-04-30 20:46 37.58878 -122.04506 3435 ft 215 kts 313°
2026-04-30 20:47 37.60856 -122.07403 2856 ft 220 kts 311°
2026-04-30 20:47 37.61837 -122.08882 2550 ft 219 kts 310°
2026-04-30 20:48 37.63738 -122.11754 1997 ft 204 kts 308°
2026-04-30 20:48 37.64618 -122.13082 1733 ft 192 kts 309°
2026-04-30 20:48 37.65453 -122.14342 1485 ft 181 kts 308°
2026-04-30 20:48 37.66234 -122.15521 1272 ft 167 kts 308°
2026-04-30 20:49 37.66952 -122.16604 1023 ft 155 kts 308°
2026-04-30 20:49 37.67634 -122.17615 701 ft 147 kts 307°
2026-04-30 20:49 37.68263 -122.18614 540 ft 145 kts 307°
2026-04-30 20:50 37.69540 -122.20513 299 ft 144 kts 310°
2026-04-30 20:50 37.70193 -122.21497 62 ft 144 kts 308°
2026-04-30 20:50 37.70797 -122.22400 6 ft 118 kts 310°
2026-04-30 20:50 37.71230 -122.23047 9 ft 75 kts 309°
2026-04-30 20:51 37.71486 -122.23433 7 ft 51 kts 311°
2026-04-30 20:51 37.71845 -122.23971 9 ft 34 kts 310°
2026-04-30 20:51 37.71952 -122.24022 10 ft 15 kts 37°
2026-04-30 20:52 37.71997 -122.23973 8 ft 9 kts 45°
2026-04-30 20:52 37.71979 -122.23901 9 ft 9 kts 130°
2026-04-30 20:52 37.71902 -122.23778 8 ft 9 kts 122°
2026-04-30 20:53 37.71871 -122.23714 8 ft 8 kts 121°
2026-04-30 20:53 37.71840 -122.23651 8 ft 8 kts 121°
2026-04-30 20:53 37.71810 -122.23587 9 ft 9 kts 121°
2026-04-30 20:54 37.71747 -122.23458 8 ft 9 kts 121°
2026-04-30 20:54 37.71711 -122.23390 8 ft 10 kts 127°
2026-04-30 20:54 37.71665 -122.23322 9 ft 10 kts 131°
2026-04-30 20:55 37.71576 -122.23192 9 ft 10 kts 131°
2026-04-30 20:55 37.71532 -122.23130 8 ft 9 kts 131°
2026-04-30 20:55 37.71491 -122.23069 9 ft 9 kts 125°
2026-04-30 20:56 37.71415 -122.22947 8 ft 9 kts 130°
2026-04-30 20:56 37.71377 -122.22891 8 ft 8 kts 130°
2026-04-30 20:56 37.71304 -122.22782 8 ft 8 kts 130°
2026-04-30 20:57 37.71266 -122.22724 8 ft 9 kts 130°
2026-04-30 20:57 37.71228 -122.22668 8 ft 8 kts 130°
2026-04-30 20:57 37.71191 -122.22613 8 ft 8 kts 130°
2026-04-30 20:58 37.71121 -122.22508 8 ft 8 kts 130°
2026-04-30 20:58 37.71088 -122.22458 9 ft 7 kts 130°
2026-04-30 20:58 37.71056 -122.22411 8 ft 7 kts 130°
2026-04-30 20:58 37.71022 -122.22360 8 ft 8 kts 130°
2026-04-30 20:59 37.70941 -122.22237 8 ft 16 kts 130°
2026-04-30 20:59 37.70863 -122.22121 8 ft 18 kts 130°
2026-04-30 21:00 37.70707 -122.21886 10 ft 16 kts 130°
2026-04-30 21:00 37.70729 -122.21743 9 ft 11 kts 40°
2026-04-30 21:01 37.70847 -122.21619 8 ft 11 kts 40°
2026-04-30 21:01 37.70905 -122.21561 9 ft 10 kts 37°
2026-04-30 21:01 37.71014 -122.21497 8 ft 5 kts 310°
2026-04-30 21:02 37.71033 -122.21535 8 ft 5 kts 299°
2026-04-30 21:02 37.71050 -122.21572 8 ft 0 kts 299°